Regional Weather Roundup
Issued by NWS

Home | Current Version | Previous Version | Text Only | Print | Product List | Glossary On
Versions: 1 2 3 4 5 6 7 8 9 10 11 12 13 14 15 16 17 18 19 20 21 22 23 24 25 26 27 28 29 30 31 32 33 34 35 36 37 38 39 40 41 42 43 44 45 46 47 48 49 50
183
ASUS43 KDTX 210001
RWRMI
MICHIGAN HOURLY REGIONAL WEATHER ROUNDUP
NATIONAL WEATHER SERVICE DETROIT/PONTIAC MI
800 PM EDT FRI OCT 20 2017

NOTE: "FAIR" INDICATES FEW OR NO CLOUDS BELOW 12,000 FEET WITH NO
SIGNIFICANT WEATHER AND/OR OBSTRUCTION TO VISIBILITY.

MIZ047>049-052>055-059>063-066>070-074>076-081>083-210100-
SOUTHEAST LOWER MICHIGAN

CITY           SKY/WX    TMP DP  RH WIND       PRES   REMARKS
ADRIAN         CLEAR     62  51  67 S5        30.16S
6HR MIN TEMP:  62; 6HR MAX TEMP:  76;

ALMA           PTCLDY    65  49  56 SW8       30.11R
ANN ARBOR      CLOUDY    62  48  60 SE5       30.16R
BAD AXE        CLOUDY    60  46  58 S7        30.12R
6HR MIN TEMP:  60; 6HR MAX TEMP:  76;

CARO           CLEAR     63  47  55 S5        30.11S
DETROIT CITY   CLOUDY    61  44  53 S5        30.16S
6HR MIN TEMP:  61; 6HR MAX TEMP:  69;

DETROIT        CLOUDY    61  47  59 S6        30.17S
6HR MIN TEMP:  61; 6HR MAX TEMP:  72;

FLINT          MOCLDY    64  47  53 S7        30.13S
6HR MIN TEMP:  64; 6HR MAX TEMP:  74;

GROSSE ILE     CLOUDY    62  48  60 S3        30.16S
6HR MIN TEMP:  60; 6HR MAX TEMP:  67;

HILLSDALE      CLEAR     61  48  63 SE5       30.15S
HOWELL         CLOUDY    66  49  54 S7        30.14S
6HR MIN TEMP:  66; 6HR MAX TEMP:  74;


CITY           SKY/WX    TMP DP  RH WIND       PRES   REMARKS
JACKSON        CLEAR     66  51  58 SE3       30.14S
6HR MIN TEMP:  64; 6HR MAX TEMP:  74;

LAMBERTVILLE   CLEAR     59  51  74 CALM      30.16S
6HR MIN TEMP:  59; 6HR MAX TEMP:  77;

LANSING        CLOUDY    66  50  56 S6        30.13S
6HR MIN TEMP:  65; 6HR MAX TEMP:  76;

LAPEER         FAIR      59  44  56 S3        30.15S
6HR MIN TEMP:  59; 6HR MAX TEMP:  72;

MASON          CLEAR     65  52  63 SE3       30.14S
MONROE         CLOUDY    56  50  82 CALM      30.16S
6HR MIN TEMP:  56; 6HR MAX TEMP:  73;

MT. CLEMENS    MOCLDY    55  52  88 S7        30.14R
6HR MIN TEMP:  54; 6HR MAX TEMP:  69;

PONTIAC        CLOUDY    62  48  60 S6        30.15R
6HR MIN TEMP:  62; 6HR MAX TEMP:  72;

PORT HOPE        N/A     66  47  50 VRB5      30.09S
6HR MIN TEMP:  65; 6HR MAX TEMP:  77;

PORT HURON     CLEAR     57  43  58 S3        30.16S
TRI CITIES     CLOUDY    67  52  58 S8        30.11R
6HR MIN TEMP:  67; 6HR MAX TEMP:  77;

MIDLAND        FAIR      67  51  56 S5        30.09R
6HR MIN TEMP:  67; 6HR MAX TEMP:  79;

TROY           CLOUDY    64  43  46 S5        30.18R
SAGINAW HB     CLOUDY    64  48  55 S9        30.10S
$$
MIZ043>046-050>051-056>058-064>065-071>073-077>080-210100-
SOUTHWEST LOWER MICHIGAN

CITY           SKY/WX    TMP DP  RH WIND       PRES   REMARKS
BATTLE CREEK   CLOUDY    66  52  60 S5        30.13S
6HR MIN TEMP:  63; 6HR MAX TEMP:  76;

BENTON HARBOR  CLEAR     68  49  50 S5        30.09S
6HR MIN TEMP:  68; 6HR MAX TEMP:  78;

BIG RAPIDS     CLOUDY    63  47  57 CALM      30.07F
6HR MIN TEMP:  63; 6HR MAX TEMP:  76;

COLDWATER      CLEAR     62  51  67 SE3       30.14R
6HR MIN TEMP:  62; 6HR MAX TEMP:  76;

FREMONT        FAIR      62  49  62 S3        30.07S
HOLLAND        CLEAR     64  50  60 S6        30.09S
6HR MIN TEMP:  64; 6HR MAX TEMP:  78;

GRAND RAPIDS   MOCLDY    64  52  64 S8        30.09F
6HR MIN TEMP:  64; 6HR MAX TEMP:  78;

IONIA          FAIR      65  50  58 S6        30.10S
6HR MIN TEMP:  65; 6HR MAX TEMP:  77;

KALAMAZOO      CLEAR     67  50  54 S6        30.13R
6HR MIN TEMP:  66; 6HR MAX TEMP:  76;

LUDINGTON      CLOUDY    62  50  65 SE5       30.03F
6HR MIN TEMP:  62; 6HR MAX TEMP:  73;

MARSHALL       CLEAR     64  51  62 CALM      30.13S
6HR MIN TEMP:  64; 6HR MAX TEMP:  75;

MOUNT PLEASANT CLOUDY    68  50  52 S3        30.09R
6HR MIN TEMP:  67; 6HR MAX TEMP:  79;

MUSKEGON       MOCLDY    67  51  56 S8        30.07S
6HR MIN TEMP:  67; 6HR MAX TEMP:  73;

SOUTH HAVEN    CLEAR     68  50  53 S3        30.09S
$$
MIZ016>042-210100-
NORTHERN LOWER MICHIGAN

CITY           SKY/WX    TMP DP  RH WIND       PRES   REMARKS
ALPENA         CLEAR     61  51  70 S7        30.04R
6HR MIN TEMP:  58; 6HR MAX TEMP:  78;

BEAVER ISLAND  PTCLDY    65  53  63 SW15G23   29.99R
6HR MIN TEMP:  65; 6HR MAX TEMP:  70;

BELLAIRE       CLEAR     57  51  81 S3        30.02R
6HR MIN TEMP:  57; 6HR MAX TEMP:  77;

CADILLAC       CLOUDY    65  46  51 S8        30.07S
CHARLEVOIX     CLEAR     69  49  50 S7        30.03R
6HR MIN TEMP:  69; 6HR MAX TEMP:  76;

FRANKFORT      PTCLDY    67  51  56 S6        30.02S
GAYLORD        CLOUDY    65  47  52 SW9       30.05R
6HR MIN TEMP:  65; 6HR MAX TEMP:  75;

GRAYLING       CLOUDY    67  46  48 SW6       30.07R
6HR MIN TEMP:  66; 6HR MAX TEMP:  76;

HARBOR SPRINGS CLEAR     65  49  56 CALM      30.01R
HOUGHTON LAKE  CLEAR     66  48  52 S6        30.08R
6HR MIN TEMP:  64; 6HR MAX TEMP:  74;

MANISTEE       CLEAR     65  51  60 VRB3      30.03S
OSCODA         CLOUDY    65  50  57 S12G17    30.06S
6HR MIN TEMP:  65; 6HR MAX TEMP:  75;

PELLSTON       CLEAR     66  51  58 SE5       30.00S
6HR MIN TEMP:  66; 6HR MAX TEMP:  77;

ROGERS CITY    CLEAR     66  50  56 S6        30.03R
TRAVERSE CITY  MOCLDY    71  49  45 S5        30.01R
6HR MIN TEMP:  70; 6HR MAX TEMP:  79;

$$
MIZ007>008-015-210100-
EASTERN UPPER MICHIGAN

CITY           SKY/WX    TMP DP  RH WIND       PRES   REMARKS
KINROSS        CLEAR     62  53  72 S6        29.99S
6HR MIN TEMP:  62; 6HR MAX TEMP:  70;

MACKINAC ISLAN CLEAR     59  52  77 S6        30.00S
6HR MIN TEMP:  59; 6HR MAX TEMP:  71;

NEWBERRY       PTCLDY    58  57  97 SW14      29.96S
6HR MIN TEMP:  58; 6HR MAX TEMP:  68;

S. S. MARIE    CLEAR     63  51  65 S5        29.98R
6HR MIN TEMP:  63; 6HR MAX TEMP:  72;

MUNISING         N/A     63  55  75 S13G20    29.91R
6HR MIN TEMP:  63; 6HR MAX TEMP:  75;

$$
MIZ004>006-011>014-085-210100-
CENTRAL UPPER MICHIGAN

CITY           SKY/WX    TMP DP  RH WIND       PRES   REMARKS
MANISTIQUE     PTCLDY    55  49  81 S3        29.97S
6HR MIN TEMP:  55; 6HR MAX TEMP:  62;

ESCANABA       CLEAR     59  55  87 S7        29.94S
6HR MIN TEMP:  59; 6HR MAX TEMP:  67;

MENOMINEE      PTCLDY    62  53  72 S5        29.96R
6HR MIN TEMP:  62; 6HR MAX TEMP:  74;

SAWYER-GWINN   CLEAR     64  50  59 S10       29.91S
$$
MIZ001>003-009>011-084-210100-
WESTERN UPPER MICHIGAN

CITY           SKY/WX    TMP DP  RH WIND       PRES   REMARKS
IRON MOUNTAIN  PTCLDY    66  46  48 S8        29.92R
6HR MIN TEMP:  66; 6HR MAX TEMP:  77;

HOUGHTON       CLEAR     71  37  28 S10       29.81S
6HR MIN TEMP:  71; 6HR MAX TEMP:  81;

COPPER HARBOR    N/A     66  45  46 SW8       29.79S
6HR MIN TEMP:  61; 6HR MAX TEMP:  73;

IRONWOOD       PTCLDY    70  43  37 S15G22    29.79F
6HR MIN TEMP:  70; 6HR MAX TEMP:  78;

$$

ABBREVIATIONS USED IN REMARKS
   TC - TEMPERATURE IN CELSIUS
  WCI - WIND CHILL INDEX
   HX - HEAT INDEX
  VSB - VISIBILITY





USA.gov is the U.S. government's official web portal to all federal, state and local government web resources and services.